Location: Dealu Mare
(46.0500°N, 22.8167°E)
Time: 08:16:37
(UTC+00:00)

ARIANE 6 FM1 Upper Stage - Pass Details

Date: 15 January 2026
Orbit: 522 x 609 km, 62.0° (Epoch: 10 February)

Event Time Altitude Azimuth Distance (km) Brightness Sun altitude
Exits shadow 03:38:36 41° 152° (SSE) 775 3.5 -25.2°
Drops below altitude 10° 03:41:18 10° 145° (SE) 1,783 5.7 -24.7°
Sets 03:43:30 0° 144° (SE) 2,682 6.7 -24.3°
